Regional Weather Roundup
Issued by NWS

Home | Current Version | Previous Version | Graphics & Text | Print | Product List | Glossary On
Versions: 1 2 3 4 5 6 7 8 9 10 11 12 13 14 15 16 17 18 19 20 21 22 23 24 25 26 27 28 29 30 31 32 33 34 35 36 37 38 39 40 41 42 43 44 45 46 47 48 49 50
000
ASUS43 KIND 261509
RWRIN

WEATHER ROUNDUP FOR INDIANA
NATIONAL WEATHER SERVICE INDIANAPOLIS IN
1100 AM EDT THU APR 26 2018

NOTE: "FAIR" INDICATES FEW OR NO CLOUDS BELOW 12,000 FEET WITH NO
SIGNIFICANT WEATHER AND/OR OBSTRUCTIONS TO VISIBILITY.

* - STATION DOES NOT REPORT WEATHER SUCH AS PRECIPITATION OR FOG.

+ - STATION NOT QUALITY CONTROLLED BY THE NATIONAL WEATHER SERVICE.
    USE DATA WITH CAUTION...ESPECIALLY DEWPOINT AND RELATIVE
    HUMIDITY OBSERVATIONS.

INZ001>003-010>013-019-020-261600-
NORTHWEST INDIANA

CITY           SKY/WX    TMP DP  RH WIND       PRES   REMARKS
GARY /AIRPORT/ SUNNY     46  32  57 VRB5      29.99R
KNOX *+        FAIR      50  37  62 CALM      29.97S
LA PORTE +     FAIR      51  38  61 CALM      29.97S
MICHIGAN CITY+ FAIR      50  37  62 CALM      29.97S
MONTICELLO +   FAIR      48  35  60 CALM      29.96S
RENSSELAER +   FAIR      50  32  50 CALM      29.97F
VALPARAISO     FAIR      54  38  54 MISG      29.97S

$$

LMZ046-743>745-261600-
SOUTHERN LAKE MICHIGAN

STATION/POSITION TIME  TEMP    WIND        PRES    WAVE
                       AIR SEA DIR/SP/G            HT
                 (UTC) (F)     (DEG/KT/KT) (MB)    (FT)
BURNS HARBOR     1440   40      20/  4/  5 1015.9R
MICHIGAN CITY    1440   42     340/  7/  7   N/A

$$

INZ004-005-014>016-021>024-261600-
NORTH CENTRAL INDIANA

CITY           SKY/WX    TMP DP  RH WIND       PRES   REMARKS
ELKHART        FAIR      57  39  51 CALM      29.95F
GOSHEN         PTSUNNY   53  41  63 VRB3      29.96S
LOGANSPORT +   FAIR      48  37  66 W3        29.97S
PERU/GRISSOM   FAIR      50  41  73 CALM      29.95R
ROCHESTER +    FAIR      52  41  66 SW3       29.97R
SOUTH BEND     FAIR      50  37  61 S5        29.97S
WARSAW +       FAIR      50  39  66 S5        29.96R

$$

INZ006>009-017-018-025>027-261600-
NORTHEAST INDIANA

CITY           SKY/WX    TMP DP  RH WIND       PRES   REMARKS
ANGOLA *+      PTSUNNY   45  41  87 CALM      29.96S FOG
AUBURN +       FAIR      50  41  71 E6        29.97R
FORT WAYNE     FAIR      52  43  71 E7        29.96S
HUNTINGTON +   FAIR      52  40  62 SE6       29.95S
KENDALLVILLE +   N/A     49  36  61 S3        29.96S

$$

INZ028-029-035-036-043>045-051>053-261600-
WEST CENTRAL INDIANA

CITY           SKY/WX    TMP DP  RH WIND       PRES   REMARKS
CRAWFORDSVL +  FAIR      46  34  62 CALM      29.98S
GREENCASTLE +  FAIR      50  32  50 N6        29.96F
LAFAYETTE      FAIR      48  38  68 CALM      29.97S
TERRE HAUTE    FAIR      52  35  52 N8        29.96F

$$

INZ030>032-037>040-046>048-054>057-064-065-261600-
CENTRAL INDIANA

CITY           SKY/WX    TMP DP  RH WIND       PRES   REMARKS
COLUMBUS       SUNNY     52  30  43 CALM      29.95F
FISHERS *+     FAIR      50  39  66 CALM      29.97R
FRANKFORT +    FAIR      52  38  59 CALM      29.98R
GREENWOOD *+   FAIR      49  33  52 CALM      29.96S
INDIANAPOLIS   FAIR      50  34  54 CALM      29.96S
-EAGLE CREEK   FAIR      51  34  52 W3        29.95S
KOKOMO +       FAIR      50  38  63 S5        29.97R
MARION +       FAIR      49  39  69 CALM      29.97R
MT COMFORT *+  FAIR      50  39  66 CALM      29.97R
SHELBYVILLE    FAIR      51  35  54 CALM      29.94F
ZIONSVILLE +   FAIR      47  36  64 SW3       29.97R

$$

INZ033-034-041-042-049-050-058-059-261600-
EAST CENTRAL INDIANA

CITY           SKY/WX    TMP DP  RH WIND       PRES   REMARKS
MUNCIE         FAIR      51  42  71 CALM      29.95R
RICHMOND +     FAIR      52  45  76 CALM      29.94S

$$

INZ060-061-067>069-081>083-085>088-261600-
SOUTHWEST INDIANA

CITY           SKY/WX    TMP DP  RH WIND       PRES   REMARKS
EVANSVILLE     FAIR      59  38  45 NE10      29.95R
HUNTINGBURG +  FAIR      57  35  43 N7        29.95S
WASHINGTON +   FAIR      55  30  37 NE3       29.94F

$$

INZ062-063-066-070>080-084-089>092-261600-
SOUTH CENTRAL AND SOUTHEAST INDIANA

CITY           SKY/WX    TMP DP  RH WIND       PRES   REMARKS
BATESVILLE +   SUNNY     52  37  58 MISG      29.94S
BEDFORD +      FAIR      54  27  35 CALM      29.93F
BLOOMINGTON    FAIR      55  33  43 VRB3      29.94F
FRENCH LICK *+ FAIR      55  19  24 CALM      29.94S
MADISON *+     FAIR      55  32  41 CALM      29.95S
NORTH VERNON + FAIR      52  32  46 W3        29.94
SEYMOUR +      FAIR      54  34  47 N3        29.95F

$$




USA.gov is the U.S. government's official web portal to all federal, state and local government web resources and services.